Regional Weather Roundup
Issued by NWS Cleveland, OH

Home | Current Version | Previous Version | Text Only | Print | Product List | Glossary On
Versions: 1 2 3 4 5 6 7 8 9 10 11 12 13 14 15 16 17 18 19 20 21 22 23 24 25 26 27 28 29 30 31 32 33 34 35 36 37 38 39 40 41 42 43 44 45 46 47 48 49 50
000
ASUS41 KCLE 281910
RWRCLE
OHIO REGIONAL WEATHER ROUNDUP
NATIONAL WEATHER SERVICE CLEVELAND, OH
300 PM EDT TUE APR 28 2015

NOTE: "FAIR" INDICATES FEW OR NO CLOUDS BELOW 12,000 FEET WITH NO
SIGNIFICANT WEATHER AND/OR OBSTRUCTIONS TO VISIBILITY.

OHZ001>008-015>018-024>027-034-035-043-044-282000-
   NORTHWEST OHIO

CITY           SKY/WX    TMP DP  RH WIND       PRES   REMARKS
DEFIANCE       SUNNY     62  37  39 NW7       30.05F
FINDLAY        SUNNY     60  37  42 CALM      30.04F
TOLEDO EXPRESS SUNNY     61  36  39 NW7       30.05F
TOLEDO EXEC    SUNNY     60  34  37 CALM      30.06F
LIMA           SUNNY     58  39  49 NE7       30.05F
$$

OHZ009>014-019>023-028>033-038-089-282000-
   NORTHEAST OHIO

CITY           SKY/WX    TMP DP  RH WIND       PRES   REMARKS
CLE-HOPKINS    MOSUNNY   53  36  52 N13       30.10F
CLE-LAKEFRONT  MOSUNNY   49  39  68 VRB5      30.07F
CUY CO. ARPT   NOT AVBL
LORAIN-ELYRIA  MOSUNNY   52  35  52 N6        30.08F
ASHTABULA      SUNNY     53  37  54 NW12      30.06F
AKRON-CANTON   MOSUNNY   59  37  44 NE8       30.04F
WOOSTER        MOSUNNY   56  38  50 MISG      30.05F
MANSFIELD      SUNNY     57  36  45 N12G18    30.05F
YOUNGSTOWN     MOSUNNY   57  37  47 NW10      30.03F
$$

OHZ042-051>053-060>062-070>072-077>081-282000-
  SOUTHWEST OHIO

CITY           SKY/WX    TMP DP  RH WIND       PRES   REMARKS
CINC-COVINGTON MOSUNNY   60  38  43 E9G17     30.02F
CINC-LUNKEN    SUNNY     61  42  49 MISG      30.03F
HAMILTON       SUNNY     61  39  44 E8        30.04F
DAYTON         MOSUNNY   60  39  45 E7        30.04F
WRIGHT-PAT AFB MOSUNNY   60  38  43 N7G16     30.03F
DAYTON GENERAL SUNNY     59  38  45 MISG      30.02F
WILMINGTON     SUNNY     58  36  43 N7        30.03F
$$

OHZ036-037-039>041-045>050-054>059-063>069-073>076-082>088-282000-
  CENTRAL AND SOUTHEAST OHIO

CITY           SKY/WX    TMP DP  RH WIND       PRES   REMARKS
COLUMBUS       MOSUNNY   60  37  42 NW8       30.03F
OSU AIRPORT    SUNNY     60  39  45 NW10G18   30.03F
BOLTON FIELD   SUNNY     59  37  44 NW8       30.04F
RICKENBACK AFB SUNNY     59  37  43 NW5       30.02F
NEWARK         SUNNY     62  36  37 VRB6      30.02F
MARION         SUNNY     59  37  44 VRB5G17   30.05F
LANCASTER      SUNNY     61  37  41 N9        30.03F
ZANESVILLE     SUNNY     60  36  40 W8        30.01F
NEW PHILLY     SUNNY     61  37  41 NW10      30.03F
$$


USA.gov is the U.S. government's official web portal to all federal, state and local government web resources and services.